星链-35249(STARLINK-35249)

导读

STARLINK-35249是美国于2025年10月7日发射的星链系列卫星,隶属于太空探索技术公司SpaceX的星链互联网星座项目,该项目旨在为全球提供高速低延迟卫星互联网服务。该卫星入轨后将与其他星链卫星组网,进一步扩展星链星座的全球覆盖范围与服务能力,推动低轨卫星互联网基础设施建设。

Basic Information
目录编号:
65901
目录名称:
STARLINK-35249
国际标识:
2025-224V
轨道中心:
EARTH
卫星名称:
星链-35249
卫星全名:
星链-35249(STARLINK-35249)
卫星状态:
在轨 (已飞行343 天)
发射日期:
2025-10-07 UTC
国别 :
美国 (US)
星等 :
--
This satellite is enrolled in the Space Conjunction Data Service (SCDS) and the current flight risk assessment level is: No High Risk
Orbit Information
数据来源 国际轨道数据 AOE轨道数据
星历时间 2026-09-14T14:28:20+0800
1天前
查看轨道信息
2026-09-12T22:00:00+0800
2天前
查看轨道信息
半长轴 6840.801km 6840.895km
偏心率 0.0000946 0.0001134
轨道倾角 53.160° 53.159°
近地点辐角 115.255° 76.126°
升交点赤经 214.917° 222.802°
平近点角 244.855° 323.734°
近地点 462.016km 461.982km
远地点 463.312km 463.534km
周期 93.847分钟 93.849分钟
每日圈数 15.344135 15.343819
Detailed Information
固有亮度:
5
最大亮度:
2.5
卫星平台:
Starlink V1.0
覆盖范围:
全球
运营商:
太空探索技术公司
运营商所在国:
美国
制造商(研发单位):
太空探索技术公司
制造商所在国:
美国
使用方式:
暂无
Satellite Introduction
Starlink 计划是 SpaceX 推出的全球卫星互联网项目,通过发射低轨道卫星,为全球尤其是偏远地区提供高速、低延迟的互联网服务。自 2019 年起,Starlink 已部署数千颗卫星,旨在缩小全球数字鸿沟,推动互联网普及。该项目还为军事、航空等行业提供通信支持,带来广泛经济效益。
2D Orbit Map
3D Orbit Map
Orbit Altitude Analysis Chart
Orbit Inclination Analysis Chart
Orbit Comprehensive Analysis Chart
View Comprehensive Chart
Conjunction Data List
Event ID Objects TCA Miss Dist (km) Collision Risk Probability Collision Risk Index (CRI) Action
CDM_260915-171905-357006-590121
2026-09-15T
17:19:58+0000
2.625 km
极远距离
9.547595E-7 极低风险 0.35
Miss Distance Evolution Trend with All Objects Subscribe to Flight Safety Assessment
Collision Probability Evolution Trend with All Objects Subscribe to Flight Safety Assessment